Location: Unspecified
(42.1900°N, 71.3291°W)
Time: 17:36:09
(UTC-04:00)

ISS - Visible Passes

Search period start: 28 March 2017 00:00
Search period end: 07 April 2017 00:00
Orbit: 399 x 409 km, 51.6° (Epoch: 29 March)

Date Brightness Start Highest point End Pass type
(mag) Time Alt. Az. Time Alt. Az. Time Alt. Az.
28 Mar -2.7 19:33:48 10° SSW 19:36:31 25° SE 19:39:17 10° ENE visible
28 Mar -2.6 21:09:45 10° W 21:12:44 41° NW 21:12:44 41° NW visible
29 Mar -3.6 20:17:12 10° WSW 20:20:26 71° NNW 20:23:09 14° NE visible
29 Mar -0.6 21:54:52 10° WNW 21:55:50 15° NW 21:55:50 15° NW visible
30 Mar -1.7 21:01:59 10° WNW 21:04:45 25° NNW 21:06:01 20° NNE visible
31 Mar -2.3 20:09:10 10° W 20:12:12 35° NNW 20:15:16 10° NE visible
31 Mar -0.9 21:47:13 10° NW 21:48:42 15° NNW 21:48:42 15° NNW visible
01 Apr -1.3 20:54:19 10° WNW 20:56:42 18° NNW 20:58:35 12° NNE visible
02 Apr -1.6 20:01:23 10° WNW 20:04:03 23° NNW 20:06:44 10° NE visible
02 Apr -1.1 21:39:17 10° NW 21:41:00 15° N 21:41:00 15° N visible
03 Apr -1.2 20:46:33 10° NW 20:48:39 16° N 20:50:42 10° NE visible
04 Apr -1.3 19:53:39 10° NW 19:55:56 17° N 19:58:14 10° NE visible
04 Apr -1.3 21:30:59 10° NW 21:32:59 17° N 21:32:59 17° N visible
05 Apr -1.3 20:38:28 10° NW 20:40:35 16° N 20:42:35 10° NE visible
05 Apr -0.5 22:14:46 10° NW 22:15:14 13° NW 22:15:14 13° NW visible
06 Apr -1.3 19:45:45 10° NW 19:47:49 16° N 19:49:54 10° NE visible
06 Apr -1.9 21:22:25 10° NW 21:24:49 23° N 21:24:49 23° N visible
